Regional Weather Roundup
Issued by NWS Cleveland, OH

Home | Current Version | Previous Version | Graphics & Text | Print | Product List | Glossary Off
Versions: 1 2 3 4 5 6 7 8 9 10 11 12 13 14 15 16 17 18 19 20 21 22 23 24 25 26 27 28 29 30 31 32 33 34 35 36 37 38 39 40 41 42 43 44 45 46 47 48 49 50

558
ASUS41 KCLE 271312
RWRCLE
OHIO REGIONAL WEATHER ROUNDUP
NATIONAL WEATHER SERVICE WILMINGTON, OH
900 AM EDT SUN MAY 27 2018

NOTE: "FAIR" INDICATES FEW OR NO CLOUDS BELOW 12,000 FEET WITH NO
SIGNIFICANT WEATHER AND/OR OBSTRUCTIONS TO VISIBILITY.

OHZ001>008-015>018-024>027-034-035-043-044-271400-
   NORTHWEST OHIO

CITY           SKY/WX    TMP DP  RH WIND       PRES   REMARKS
DEFIANCE       FAIR      72  70  93 SW3       29.91R
FINDLAY        FAIR      75  69  81 SW6       29.91R
TOLEDO EXPRESS FAIR      74  72  93 SW5       29.90S
TOLEDO EXEC    FAIR      74  69  85 SW5       29.91R HAZE
LIMA           FAIR      74  69  85 SW6       29.93R
$$

OHZ009>014-019>023-028>033-038-089-271400-
   NORTHEAST OHIO

CITY           SKY/WX    TMP DP  RH WIND       PRES   REMARKS
CLE-HOPKINS    FAIR      73  68  84 CALM      29.95R
CLE-LAKEFRONT  CLOUDY    71  66  84 SE7       29.92R
CUY CO. ARPT   CLOUDY    72  68  88 SE5       29.95R FOG
LORAIN-ELYRIA  PTSUNNY   70  64  81 VRB6      29.94R
ASHTABULA      PTSUNNY   70  67  90 SW8       29.95R
AKRON-CANTON   CLOUDY    71  66  84 NW3       29.95R HAZE
WOOSTER        PTSUNNY   70  66  87 CALM      29.95S
MANSFIELD      CLOUDY    70  68  93 SW5       29.95R FOG
YOUNGSTOWN     CLOUDY    69  66  90 SW3       29.95R
$$

OHZ042-051>053-060>062-070>072-077>081-271400-
  SOUTHWEST OHIO

CITY           SKY/WX    TMP DP  RH WIND       PRES   REMARKS
CINC-COVINGTON CLOUDY    71  66  84 CALM      29.94R
CINC-LUNKEN    FAIR      72  70  93 S5        29.94R
HAMILTON       FAIR      72  70  93 VRB3      29.94S
DAYTON         PTSUNNY   72  69  90 SW6       29.94R
WRIGHT-PAT AFB FAIR      74  67  79 SW7       29.93R
DAYTON GENERAL FAIR      74  67  78 SW5       29.94R
WILMINGTON     FAIR      73  69  87 W9        29.94R
$$

OHZ036-037-039>041-045>050-054>059-063>069-073>076-082>088-271400-
  CENTRAL AND SOUTHEAST OHIO

CITY           SKY/WX    TMP DP  RH WIND       PRES   REMARKS
COLUMBUS       PTSUNNY   73  67  81 CALM      29.93R
OSU AIRPORT    FAIR      73  68  84 CALM      29.94R
BOLTON FIELD   SUNNY     70  70 100 CALM      29.95R
RICKENBACK AFB FAIR      71  69  93 MISG      29.94R
NEWARK         FAIR      72  68  87 CALM      29.94R
MARION         CLOUDY    68  68 100 CALM      29.94R FOG
LANCASTER      FAIR      73  69  87 CALM      29.95R
ZANESVILLE     CLOUDY    69  67  93 SW3       29.95R FOG
NEW PHILLY     CLOUDY    69  68  96 CALM      29.95R FOG
$$




USA.gov is the U.S. government's official web portal to all federal, state and local government web resources and services.